Satellite: RS-30
Catalog number: 32953
Epoch time:      10357.76197650
Element set:     325
Inclination:      082.5017 deg
RA of node:       271.7905 deg
Eccentricity:    0.0020074
Arg of perigee:   049.6696 deg
Mean anomaly:     310.6132 deg
Mean motion:   12.43010009 rev/day
Decay rate:        1.0e-07 rev/day^2
Epoch rev:           11729
Checksum:              267

Satellite: TACSAT-3
Catalog number: 35001
Epoch time:      10356.92510161
Element set:    0479
Inclination:      040.4553 deg
RA of node:       158.6029 deg
Eccentricity:    0.0023283
Arg of perigee:   335.5216 deg
Mean anomaly:     024.4493 deg
Mean motion:   15.44124914 rev/day
Decay rate:      5.250e-05 rev/day^2
Epoch rev:           08979
Checksum:              282

Satellite: PHARMSAT
Catalog number: 35002
Epoch time:      10356.82844030
Element set:     430
Inclination:      040.4690 deg
RA of node:       156.7120 deg
Eccentricity:    0.0025668
Arg of perigee:   337.8956 deg
Mean anomaly:     022.0752 deg
Mean motion:   15.44404603 rev/day
Decay rate:      5.302e-05 rev/day^2
Epoch rev:            8980
Checksum:              266

Satellite: HAWKSAT1
Catalog number: 35003
Epoch time:      10357.57449773
Element set:     469
Inclination:      040.4586 deg
RA of node:       139.5268 deg
Eccentricity:    0.0023543
Arg of perigee:   007.1879 deg
Mean anomaly:     352.9271 deg
Mean motion:   15.50279094 rev/day
Decay rate:     1.4793e-04 rev/day^2
Epoch rev:            9006
Checksum:              320

Satellite: CP6
Catalog number: 35004
Epoch time:      10357.54283534
Element set:     471
Inclination:      040.4594 deg
RA of node:       136.5733 deg
Eccentricity:    0.0022815
Arg of perigee:   012.5750 deg
Mean anomaly:     347.5629 deg
Mean motion:   15.52265317 rev/day
Decay rate:     1.8726e-04 rev/day^2
Epoch rev:            9008
Checksum:              293

Satellite: AEROCUB3
Catalog number: 35005
Epoch time:      10357.68378788
Element set:     579
Inclination:      040.4582 deg
RA of node:       109.7681 deg
Eccentricity:    0.0023306
Arg of perigee:   041.0680 deg
Mean anomaly:     319.1898 deg
Mean motion:   15.90445506 rev/day
Decay rate:    4.26724e-03 rev/day^2
Epoch rev:            9039
Checksum:              326

Satellite: METEOR-M
Catalog number: 35865
Epoch time:      10357.78573879
Element set:     949
Inclination:      098.7339 deg
RA of node:       049.9728 deg
Eccentricity:    0.0002115
Arg of perigee:   159.1896 deg
Mean anomaly:     200.9323 deg
Mean motion:   14.21833724 rev/day
Decay rate:       1.76e-06 rev/day^2
Epoch rev:            6566
Checksum:              346

Satellite: RS-38
Catalog number: 35869
Epoch time:      10357.80658153
Element set:     961
Inclination:      098.7319 deg
RA of node:       050.0339 deg
Eccentricity:    0.0004560
Arg of perigee:   167.4559 deg
Mean anomaly:     192.6686 deg
Mean motion:   14.21996445 rev/day
Decay rate:       1.77e-06 rev/day^2
Epoch rev:            6567
Checksum:              351

/EX


_______________________________________________
Via the Keps mailing list courtesy of AMSAT-NA
http://amsat.org/mailman/listinfo/keps

--- ViaMAIL!/WC v1.60d
 * Origin: Chowdanet (401-724-4410) telnet://chowdanet.com  (1:323/120)